Location: Jackson Park
(37.2862°N, 79.9123°W)
Time: 12:08:56
(UTC+00:00)

Vanguard 2 Rocket - Pass Details

Date: 11 May 2026
Orbit: 553 x 3286 km, 32.9° (Epoch: 11 June)

Event Time Altitude Azimuth Distance (km) Brightness Sun altitude
Rises 15:15:38 0° 213° (SSW) 5,093 10.7 57.3°
Reaches altitude 10° 15:18:50 10° 205° (SSW) 4,439 10.6 57.9°
Maximum altitude 15:30:46 40° 141° (SE) 3,601 11.4 59.9°
Drops below altitude 10° 15:47:33 10° 82° (E) 6,200 11.6 62.6°
Sets 15:53:00 0° 76° (ENE) 7,263 11.7 63.5°
